RYR5TA LEVC-LIMC

Flight info

Callsign RYR5TA
Flight time N/A
Altitude 34000
Route SOPET M985 LUMAS DCT UNANA DCT STP/N0452F350 DCT RAPED/N0450F340 DCT PIGOS DCT EKSID DCT NOSTA DCT NOPMU DCT EGHIN DCT ANAKI/N0453F300 P860 DEVOX
Aircraft B738/M-SDE2E3FGHIRWXY/LB1

Departure

Time N/A
Airport Valencia Airport (LEVC)

Arrival

Time 2026-05-05 18:25
Airport Milan Malpensa International Airport (LIMC)
Time Latitude Longitude Altitude Speed Heading
2026-05-05 17:59 43.88157 7.82355 32221 ft 535 kts 33°
2026-05-05 17:59 43.91120 7.85403 31411 ft 540 kts 37°
2026-05-05 17:59 43.93817 7.89015 31076 ft 535 kts 49°
2026-05-05 18:00 43.96055 7.93134 30844 ft 533 kts 58°
2026-05-05 18:00 43.97858 7.97604 30558 ft 532 kts 67°
2026-05-05 18:00 43.99292 8.02197 30364 ft 531 kts 68°
2026-05-05 18:00 44.00742 8.06905 30113 ft 530 kts 68°
2026-05-05 18:01 44.02214 8.11597 29827 ft 530 kts 68°
2026-05-05 18:01 44.03712 8.16269 29562 ft 528 kts 67°
2026-05-05 18:01 44.05218 8.20919 29236 ft 527 kts 67°
2026-05-05 18:01 44.06687 8.25561 28668 ft 519 kts 69°
2026-05-05 18:02 44.08046 8.30176 28119 ft 512 kts 70°
2026-05-05 18:02 44.09342 8.34761 27548 ft 506 kts 70°
2026-05-05 18:02 44.10612 8.39291 26986 ft 501 kts 70°
2026-05-05 18:02 44.11880 8.43782 26430 ft 496 kts 70°
2026-05-05 18:03 44.13145 8.48228 25856 ft 492 kts 70°
2026-05-05 18:03 44.14405 8.52630 25294 ft 487 kts 70°
2026-05-05 18:03 44.15654 8.56986 24748 ft 483 kts 70°
2026-05-05 18:03 44.16878 8.61261 24207 ft 478 kts 71°
2026-05-05 18:04 44.18261 8.65462 23628 ft 478 kts 59°
2026-05-05 18:04 44.20442 8.68921 23005 ft 475 kts 38°
2026-05-05 18:04 44.23207 8.71366 22428 ft 467 kts 23°
2026-05-05 18:04 44.26236 8.72823 21843 ft 456 kts
2026-05-05 18:05 44.29355 8.73231 21333 ft 445 kts 358°
2026-05-05 18:05 44.32431 8.73330 20780 ft 440 kts 356°
2026-05-05 18:05 44.35469 8.73384 20234 ft 436 kts 356°
2026-05-05 18:05 44.38491 8.73445 19684 ft 432 kts 357°
2026-05-05 18:06 44.41482 8.73528 19152 ft 429 kts 357°
2026-05-05 18:06 44.43453 8.73595 18796 ft 426 kts 358°
2026-05-05 18:06 44.47407 8.73746 18026 ft 423 kts 358°
2026-05-05 18:06 44.50344 8.73871 17449 ft 420 kts 358°
2026-05-05 18:07 44.53253 8.73997 16899 ft 415 kts 358°
2026-05-05 18:07 44.56117 8.74121 16576 ft 406 kts 358°
2026-05-05 18:07 44.58888 8.74243 16424 ft 392 kts 358°
2026-05-05 18:07 44.61579 8.74360 16252 ft 381 kts 358°
2026-05-05 18:08 44.64160 8.74470 16095 ft 370 kts 357°
2026-05-05 18:08 44.66704 8.74577 15962 ft 360 kts 358°
2026-05-05 18:08 44.69151 8.74639 15789 ft 341 kts 352°
2026-05-05 18:08 44.71418 8.74101 15439 ft 327 kts 346°
2026-05-05 18:09 44.73687 8.74076 15127 ft 324 kts
2026-05-05 18:09 44.75945 8.74406 14529 ft 327 kts
2026-05-05 18:09 44.78181 8.74746 14270 ft 315 kts
2026-05-05 18:09 44.80288 8.75039 14191 ft 293 kts
2026-05-05 18:10 44.82272 8.75281 13838 ft 282 kts
2026-05-05 18:10 44.84228 8.75490 13228 ft 283 kts
2026-05-05 18:10 44.86191 8.75681 12749 ft 282 kts
2026-05-05 18:10 44.88119 8.75859 12301 ft 280 kts
2026-05-05 18:11 44.90054 8.76032 11872 ft 277 kts
2026-05-05 18:11 44.91963 8.76199 11431 ft 274 kts
2026-05-05 18:11 44.93862 8.76363 11019 ft 272 kts
2026-05-05 18:11 44.95746 8.76523 10603 ft 270 kts
2026-05-05 18:12 44.97599 8.76679 10202 ft 267 kts
2026-05-05 18:12 44.99449 8.76835 9791 ft 265 kts
2026-05-05 18:12 45.01279 8.76989 9331 ft 264 kts
2026-05-05 18:12 45.03107 8.77142 8886 ft 262 kts
2026-05-05 18:13 45.04919 8.77294 8451 ft 260 kts
2026-05-05 18:13 45.06723 8.77446 8011 ft 259 kts
2026-05-05 18:13 45.08518 8.77596 7604 ft 257 kts
2026-05-05 18:13 45.10254 8.77743 7502 ft 242 kts
2026-05-05 18:14 45.11904 8.77883 7283 ft 235 kts
2026-05-05 18:14 45.13528 8.78019 6939 ft 234 kts
2026-05-05 18:14 45.14255 8.78080 6786 ft 233 kts
2026-05-05 18:14 45.15774 8.78208 6484 ft 231 kts
2026-05-05 18:15 45.17369 8.78342 6124 ft 228 kts
2026-05-05 18:15 45.18946 8.78474 5675 ft 227 kts
2026-05-05 18:15 45.20526 8.78607 5242 ft 226 kts
2026-05-05 18:15 45.22087 8.78738 4841 ft 224 kts
2026-05-05 18:16 45.23595 8.78866 4713 ft 209 kts
2026-05-05 18:16 45.24980 8.78984 4602 ft 195 kts
2026-05-05 18:16 45.26302 8.79096 4377 ft 188 kts
2026-05-05 18:16 45.27601 8.79206 4108 ft 185 kts
2026-05-05 18:17 45.28899 8.79316 4042 ft 188 kts
2026-05-05 18:17 45.30201 8.79426 3996 ft 186 kts
2026-05-05 18:17 45.31464 8.79533 3981 ft 177 kts
2026-05-05 18:17 45.32683 8.79636 3983 ft 174 kts
2026-05-05 18:18 45.33894 8.79738 3988 ft 175 kts
2026-05-05 18:18 45.35107 8.79840 3993 ft 175 kts
2026-05-05 18:18 45.36323 8.79942 3999 ft 176 kts
2026-05-05 18:18 45.37552 8.79941 3991 ft 177 kts 351°
2026-05-05 18:19 45.38763 8.79667 4002 ft 176 kts 350°
2026-05-05 18:19 45.39977 8.79417 3992 ft 177 kts 351°
2026-05-05 18:19 45.41205 8.79232 3999 ft 176 kts 353°
2026-05-05 18:19 45.42422 8.79001 3990 ft 176 kts 349°
2026-05-05 18:20 45.43626 8.78708 3975 ft 176 kts 348°
2026-05-05 18:20 45.44832 8.78387 3962 ft 177 kts 348°
2026-05-05 18:20 45.46037 8.78057 3834 ft 180 kts 348°
2026-05-05 18:20 45.47264 8.77717 3593 ft 178 kts 348°
2026-05-05 18:21 45.48468 8.77383 3357 ft 175 kts 349°
2026-05-05 18:21 45.49647 8.77056 3128 ft 170 kts 349°
2026-05-05 18:21 45.50798 8.76737 2897 ft 166 kts 349°
2026-05-05 18:21 45.51910 8.76428 2678 ft 159 kts 349°
2026-05-05 18:22 45.52973 8.76134 2524 ft 151 kts 350°
2026-05-05 18:22 45.53999 8.75850 2287 ft 148 kts 349°
2026-05-05 18:22 45.54995 8.75574 2074 ft 144 kts 350°
2026-05-05 18:22 45.55970 8.75304 1889 ft 144 kts 350°
2026-05-05 18:23 45.56949 8.75032 1693 ft 142 kts 350°
2026-05-05 18:23 45.57907 8.74767 1474 ft 139 kts 349°
2026-05-05 18:23 45.58825 8.74513 1276 ft 130 kts 348°
2026-05-05 18:23 45.59705 8.74263 1020 ft 130 kts 348°
2026-05-05 18:24 45.60603 8.74007 852 ft 133 kts 347°
2026-05-05 18:24 45.61507 8.73755 744 ft 131 kts 348°
2026-05-05 18:24 45.62341 8.73538 720 ft 107 kts 349°
2026-05-05 18:24 45.62950 8.73363 713 ft 66 kts 345°
2026-05-05 18:25 45.63164 8.73207 714 ft 24 kts 317°
2026-05-05 18:25 45.63189 8.73174 716 ft 10 kts 316°
2026-05-05 18:25 45.63300 8.72971 718 ft 19 kts 306°
2026-05-05 18:25 45.63380 8.72813 717 ft 20 kts 306°
2026-05-05 18:26 45.63406 8.72676 715 ft 15 kts 268°
2026-05-05 18:26 45.63387 8.72479 719 ft 25 kts 259°
2026-05-05 18:26 45.63357 8.72259 716 ft 18 kts 259°
2026-05-05 18:26 45.63329 8.72051 718 ft 21 kts 259°
2026-05-05 18:27 45.63305 8.71882 716 ft 13 kts 258°
2026-05-05 18:27 45.63280 8.71706 715 ft 19 kts 248°
2026-05-05 18:27 45.63171 8.71687 718 ft 20 kts 163°
2026-05-05 18:27 45.63050 8.71727 719 ft 21 kts 168°
2026-05-05 18:28 45.62909 8.71786 717 ft 6 kts 96°
2026-05-05 18:28 45.62915 8.71842 719 ft 4 kts 82°
2026-05-05 18:28 45.62915 8.71848 718 ft 0 kts 82°
2026-05-05 18:29 45.62915 8.71849 718 ft 0 kts 83°